Home   Weather   Vancouver   Past weeks
Flag for USA

Past Weather in Vancouver, Washington, USA — Yesterday and Last 2 Weeks

Now
61 °F

Overcast.


Feels Like: 61 °F
Forecast: 61 / 40 °F
Wind: 7 mph from Southeast

Location: Vancouver - Pearson Airpark

Current Time: Apr 5, 2020 at 6:55:54 pm

Latest Report: Apr 5, 2020 at 5:53 pm


Visibility: 10 mi

Pressure: 29.55 "Hg

Humidity: 46%

Dew Point: 40 °F

Location of VancouverLocation

Past Weather in Vancouver — Graph

°F

Vancouver Temperature Yesterday

Maximum temperature yesterday: 54 °F (at 2:53 pm)
Minimum temperature yesterday: 37 °F (at 5:53 am)
Average temperature yesterday: 44 °F

High & Low Weather Summary for the Past Weeks

 TemperatureHumidityPressure
High64 °F (Apr 5, 4:53 pm)93% (Apr 2, 1:53 am)30.24 "Hg (Apr 2, 1:53 am)
Low33 °F (Mar 22, 4:53 am)31% (Mar 22, 5:53 pm)29.54 "Hg (Apr 5, 3:53 pm)
Average46 °F74%30.00 "Hg
* Reported Mar 21 4:53 pm — Apr 5 4:53 pm, Vancouver. Weather by CustomWeather, © 2020

Note: Actual official high and low records may vary slightly from our data, if they occured in-between our weather recording intervals... More about our weather records

Vancouver Weather History for the Previous 24 Hours

Scroll right to see more
 ConditionsComfort  
Time TempWeatherWind HumidityBarometerVisibility
4:53 pm
Sun, Apr 5
64 °FPassing clouds.5 mph38%29.54 "Hg10 mi
3:53 pm62 °FPartly sunny.5 mph43%29.54 "Hg10 mi
2:53 pm62 °FSunny.9 mph46%29.54 "Hg10 mi
1:53 pm59 °FScattered clouds.7 mph51%29.56 "Hg10 mi
12:53 pm58 °FScattered clouds.5 mph50%29.57 "Hg10 mi
11:53 am55 °FPartly sunny.7 mph57%29.57 "Hg10 mi
10:53 am51 °FOvercast.7 mph69%29.58 "Hg10 mi
9:53 am49 °FOvercast.10 mph74%29.58 "Hg10 mi
8:53 am47 °FMostly cloudy.7 mph80%29.59 "Hg10 mi
7:53 am45 °FOvercast.6 mph86%29.59 "Hg10 mi
6:53 am44 °FLight rain. Overcast.6 mph89%29.58 "Hg10 mi
5:53 am43 °FMostly cloudy.8 mph93%29.57 "Hg10 mi
4:53 am42 °FMostly cloudy.5 mph92%29.57 "Hg10 mi
3:53 am41 °FPartly cloudy.N/A89%29.57 "Hg10 mi
2:53 am40 °FPassing clouds.N/A93%29.57 "Hg10 mi
1:53 am42 °FPassing clouds.No wind85%29.57 "Hg10 mi
12:53 am45 °FOvercast.N/A82%29.58 "Hg10 mi
11:53 pm
Sat, Apr 4
47 °FOvercast.No wind74%29.59 "Hg10 mi
10:53 pm47 °FOvercast.No wind77%29.60 "Hg10 mi
9:53 pm47 °FOvercast.6 mph74%29.60 "Hg10 mi
8:53 pm46 °FOvercast.8 mph89%29.60 "Hg10 mi
7:53 pm47 °FLight rain. Overcast.7 mph83%29.61 "Hg10 mi
6:53 pm48 °FLight rain. Overcast.6 mph74%29.61 "Hg10 mi
Weather by CustomWeather, © 2020

See weather overview

Advertising